[[{"header":{"parameterUnit":"m.s-1","parameterCategory":1,"la1":30.2991,"la2":30.254,"lo1":-89.0895,"lo2":-89.0444,"dy":0.0017,"dx":0.0017,"nx":28,"ny":28,"refTime":"2024-10-13T03:00:00:Z","depth":0,"parameterNumber":2,"parameterNumberName":"U-component_of_WINDS"},"data":[0,0,0,0,0,0,0,0,0,0,0,0,0,0,0,0,0,0,0,0,0,0,0,0,0,0,0,0,0,0,0,0,0,0,0,0,0,0,0,0,0,0,0,0,0,0,0,0,0,0,0,0,0,0,0,0,0,0,4.8727,4.8729,0,4.8909,4.8911,4.8913,4.886,4.8856,4.8852,4.8849,4.9037,4.9046,4.9054,0,0,0,0,0,0,0,0,0,0,0,0,0,4.8335,4.8343,4.8727,4.8729,4.8731,4.8908,4.8911,4.8913,4.8861,4.8856,4.8851,4.8847,4.9035,4.9045,4.9055,0,0,0,0,0,0,0,0,0,0,0,0,0,4.851,4.8345,4.8726,4.8726,4.8728,4.8908,4.8911,4.8914,4.8862,4.8856,4.885,4.8845,4.9031,4.9044,4.9056,4.9248,0,0,4.9095,4.9101,0,0,0,0,0,0,0,0,4.85,4.8525,4.8724,4.8727,4.8729,4.8856,4.8842,4.9026,4.8863,4.8811,4.8849,4.8842,4.8982,4.8998,4.9045,4.9257,4.9265,4.9097,4.9104,4.911,4.9113,0,0,0,0,0,0,0,4.8488,4.8517,4.8799,4.8727,4.873,4.8718,4.8736,4.8877,4.8926,4.8815,4.8812,4.8834,4.8982,4.9033,4.9049,4.9268,4.9096,4.9108,4.9115,4.912,4.9645,4.9651,0,0,0,0,0,0,4.8474,4.8507,4.8793,4.8804,4.8598,4.8729,4.875,4.8821,4.8924,4.8934,4.8838,4.8831,4.9014,4.9034,4.9055,4.9285,4.911,4.9122,4.9129,4.9639,4.9646,4.9653,0,0,0,0,0,0,4.8466,4.85,4.8786,4.8655,4.869,4.8742,4.8822,4.8827,4.8878,4.8942,4.895,4.8881,4.901,4.9037,4.92,4.9291,4.9127,4.9139,4.9631,4.9641,4.965,4.9748,0,0,0,0,0,0,4.8455,4.8498,4.8571,4.8657,4.8697,4.8927,4.8828,4.8835,4.89,4.8891,4.8984,4.8994,4.9008,4.9181,4.9213,4.9306,4.9149,4.9623,4.9635,4.9647,4.9737,4.9759,4.9779,0,0,0,0,0,4.8441,4.8592,4.8575,4.861,4.879,4.8933,4.8956,4.8968,4.8907,4.8981,4.9022,4.8991,4.9276,4.9198,4.9233,4.9332,4.9618,4.9632,4.9646,4.9727,4.9755,4.9778,0,0,0,0,0,0,4.8517,4.8603,4.8585,4.8768,4.8843,4.8923,4.9017,4.8997,4.9092,4.908,4.9092,4.9113,4.9279,4.9322,4.9234,4.9522,4.9438,4.946,4.9488,4.9515,4.9536,4.9522,4.916,0,0,0,0,0,4.8554,4.8663,4.8733,4.8888,4.8926,4.8965,4.9028,4.9031,4.9109,4.9141,4.9194,4.9272,4.9379,4.9449,4.9552,4.9743,4.9762,4.9828,4.9849,4.9866,4.9884,4.9987,5.0017,4.9699,4.9699,4.9699,0,0,4.8634,4.8695,4.8763,4.8904,4.8963,4.9075,4.8993,4.9115,4.9198,4.916,4.9316,4.9358,4.9446,4.9623,4.9704,4.9664,4.9976,4.9884,4.9897,4.9906,5.0005,5.0035,5.0062,4.9709,4.9707,4.9705,0,0,4.8836,4.8893,4.9028,4.9088,4.9177,4.9202,4.9234,4.9317,4.9343,4.95,4.9473,4.9572,4.9757,4.982,4.9876,5.0101,5.0076,5.0134,5.0244,5.0345,5.037,5.0392,5.0471,5.05,5.0153,5.0153,5.0153,0,4.8924,4.9091,4.91,4.9224,4.9287,4.9256,4.9392,4.945,4.9569,4.9613,4.9566,4.9796,4.9853,5.0044,5.0099,5.0146,5.0183,5.0124,5.0365,5.0388,5.0409,5.0484,5.0514,5.0159,5.0159,5.0158,5.0157,0,4.9194,4.9311,4.9409,4.9522,4.9596,4.9726,4.9755,4.9829,4.9824,4.9854,5.0014,5.0081,5.0196,5.0241,5.0239,5.0432,5.0404,5.0362,5.0277,5.0445,5.0517,5.0546,5.0169,5.0166,5.0164,5.0163,0,0,4.945,4.9565,4.9601,4.9652,4.9747,4.9837,4.9966,5.0077,5.0139,5.0222,5.033,5.0486,5.0446,5.051,5.0515,5.0603,5.0775,5.0549,5.0551,5.0588,5.0991,5.1022,5.1056,5.0759,5.0765,5.0769,5.0983,0,4.9659,4.9884,4.9894,5.0099,5.0206,5.0178,5.0289,5.036,5.0391,5.0487,5.0522,5.0632,5.0572,5.061,5.0696,5.0736,5.0856,5.0721,5.0859,5.0864,5.0837,5.1093,5.1127,5.1326,5.1011,5.1016,5.102,0,4.9934,5.0023,5.0238,5.0317,5.0362,5.0462,5.0564,5.0656,5.0735,5.0752,5.0823,5.0814,5.0945,5.0857,5.1038,5.0945,5.1002,5.1031,5.1039,5.1052,5.0952,5.1112,5.139,5.1419,5.1064,5.106,5.1057,0,5.0097,5.0272,5.0422,5.0467,5.0563,5.0633,5.0677,5.0751,5.0816,5.0906,5.0948,5.1052,5.1109,5.119,5.1209,5.1143,5.139,5.1303,5.1407,5.1407,5.146,5.1456,5.175,5.1498,5.1498,5.1497,5.1497,0,5.033,5.0462,5.0497,5.0589,5.0737,5.0748,5.0893,5.0932,5.0998,5.1097,5.108,5.1174,5.1194,5.1293,5.1309,5.1456,5.1482,5.1499,5.1502,5.15,5.1498,5.1538,5.1524,5.1505,5.1503,5.1502,5.1501,0,5.0538,5.0566,5.0728,5.0805,5.0828,5.0933,5.0999,5.1088,5.1116,5.1242,5.1273,5.1318,5.1432,5.146,5.1597,5.1608,5.1781,5.1771,5.1754,5.1753,5.1855,5.1845,5.2184,5.2228,5.1948,5.1951,5.1953,0,5.0684,5.0785,5.0872,5.0937,5.0983,5.1088,5.1155,5.1169,5.1239,5.1336,5.1414,5.1526,5.1616,5.1801,5.1846,5.195,5.1942,5.2054,5.1958,5.1953,5.1943,5.1936,5.1946,5.2072,5.2075,5.2077,5.2079,0,5.094,5.0949,5.1045,5.1146,5.1225,5.1305,5.1382,5.1436,5.1462,5.1541,5.1657,5.1727,5.1866,5.1978,5.2082,5.2127,5.2108,5.2109,5.2138,5.2138,5.2123,5.2131,5.1803,5.2101,5.2099,5.2097,5.2096,5.2095,5.1122,5.1209,5.1284,5.1391,5.145,5.1521,5.1608,5.1646,5.1743,5.1857,5.186,5.1986,5.2062,5.22,5.2251,5.2351,5.2317,5.2359,5.237,5.238,5.2389,5.2108,5.237,5.2369,5.2369,5.2368,5.2368,0,5.1376,5.1422,5.152,5.1627,5.1711,5.1685,5.1768,5.184,5.1951,5.2023,5.2112,5.2245,5.2352,5.2406,5.2512,5.2581,5.2575,5.2609,5.2604,5.2614,5.2414,5.2377,5.2612,5.2612,5.2612,5.2612,5.2612,5.2612,5.1518,5.1665,5.1682,5.1857,5.1903,5.2026,5.2075,5.2141,5.2198,5.2347,5.2436,5.2469,5.2534,5.2645,5.2742,5.2755,5.2795,5.2833,5.2841,5.2653,5.2628,5.2605,5.257,5.2842,5.2842,5.3033,5.3035,5.3036]},{"header":{"parameterUnit":"m.s-1","parameterCategory":1,"la1":30.2991,"la2":30.254,"lo1":-89.0895,"lo2":-89.0444,"dy":0.0017,"dx":0.0017,"nx":28,"ny":28,"refTime":"2024-10-13T03:00:00:Z","depth":0,"parameterNumber":3,"parameterNumberName":"V-component_of_WINDS"},"data":[0,0,0,0,0,0,0,0,0,0,0,0,0,0,0,0,0,0,0,0,0,0,0,0,0,0,0,0,0,0,0,0,0,0,0,0,0,0,0,0,0,0,0,0,0,0,0,0,0,0,0,0,0,0,0,0,0,0,-0.0088,-0.0088,0,-0.0112,-0.0112,-0.0113,-0.0125,-0.0125,-0.0125,-0.0125,-0.015,-0.0151,-0.0151,0,0,0,0,0,0,0,0,0,0,0,0,0,-0.0054,-0.0054,-0.0088,-0.0088,-0.0088,-0.0112,-0.0112,-0.0113,-0.0125,-0.0125,-0.0125,-0.0125,-0.015,-0.0151,-0.0151,0,0,0,0,0,0,0,0,0,0,0,0,0,-0.0072,-0.0054,-0.0088,-0.0097,-0.0098,-0.0112,-0.0112,-0.0113,-0.0125,-0.0125,-0.0125,-0.0125,-0.0149,-0.015,-0.0151,-0.0158,0,0,-0.0155,-0.0155,0,0,0,0,0,0,0,0,-0.0071,-0.0073,-0.0096,-0.0097,-0.0098,-0.0115,-0.011,-0.0128,-0.0125,-0.0115,-0.0125,-0.0125,-0.0138,-0.014,-0.0145,-0.0159,-0.016,-0.0155,-0.0155,-0.0156,-0.0156,0,0,0,0,0,0,0,-0.007,-0.0073,-0.0097,-0.0096,-0.0097,-0.0101,-0.0103,-0.0113,-0.0126,-0.0116,-0.0116,-0.0119,-0.0139,-0.0144,-0.0146,-0.016,-0.0155,-0.0155,-0.0156,-0.0156,-0.0182,-0.0182,0,0,0,0,0,0,-0.0067,-0.0071,-0.0097,-0.0098,-0.0084,-0.0101,-0.0104,-0.011,-0.0126,-0.0129,-0.0119,-0.012,-0.0142,-0.0144,-0.0147,-0.0155,-0.0156,-0.0157,-0.0157,-0.0181,-0.0182,-0.0182,0,0,0,0,0,0,-0.0066,-0.0069,-0.0096,-0.0085,-0.0089,-0.0102,-0.0108,-0.011,-0.0115,-0.0129,-0.0131,-0.0121,-0.0142,-0.0145,-0.0155,-0.0156,-0.0157,-0.0158,-0.0181,-0.0182,-0.0182,-0.0173,0,0,0,0,0,0,-0.0065,-0.0069,-0.0071,-0.0085,-0.0089,-0.0103,-0.0108,-0.0111,-0.0117,-0.0117,-0.0132,-0.0134,-0.0142,-0.0153,-0.0156,-0.0158,-0.0159,-0.0181,-0.0181,-0.0182,-0.0173,-0.0172,-0.0172,0,0,0,0,0,-0.0064,-0.0067,-0.0071,-0.0074,-0.0092,-0.0103,-0.0106,-0.0115,-0.0117,-0.0119,-0.0128,-0.0134,-0.0156,-0.0154,-0.0157,-0.0159,-0.0181,-0.0181,-0.0182,-0.0173,-0.0173,-0.0172,0,0,0,0,0,0,-0.0053,-0.0069,-0.0073,-0.0081,-0.0091,-0.0105,-0.0108,-0.0114,-0.0123,-0.0124,-0.0135,-0.0138,-0.0147,-0.0155,-0.0152,-0.0167,-0.0169,-0.017,-0.0162,-0.0161,-0.0161,-0.0159,-0.016,0,0,0,0,0,-0.0051,-0.0058,-0.0073,-0.0078,-0.0083,-0.0095,-0.01,-0.0107,-0.0117,-0.0121,-0.0131,-0.0141,-0.0151,-0.0156,-0.0166,-0.0174,-0.0178,-0.0177,-0.0177,-0.0177,-0.0177,-0.0183,-0.0183,-0.0182,-0.0182,-0.0182,0,0,-0.0048,-0.0058,-0.0062,-0.0076,-0.0085,-0.0093,-0.0098,-0.0106,-0.0112,-0.0122,-0.0132,-0.014,-0.0152,-0.0162,-0.0166,-0.0168,-0.0178,-0.0177,-0.0176,-0.0177,-0.0183,-0.0183,-0.0183,-0.0182,-0.0182,-0.0182,0,0,-0.0046,-0.0054,-0.006,-0.0069,-0.0081,-0.0089,-0.009,-0.0104,-0.011,-0.012,-0.0128,-0.0136,-0.0152,-0.016,-0.0167,-0.017,-0.0175,-0.0172,-0.017,-0.0176,-0.0176,-0.0176,-0.0178,-0.0178,-0.0173,-0.0173,-0.0173,0,-0.0041,-0.0053,-0.0063,-0.007,-0.0077,-0.0087,-0.0093,-0.0101,-0.0116,-0.012,-0.0122,-0.0142,-0.0151,-0.0163,-0.0164,-0.0169,-0.0171,-0.0171,-0.0175,-0.0175,-0.0176,-0.0177,-0.0178,-0.0172,-0.0172,-0.0173,-0.0173,0,-0.0046,-0.0054,-0.0057,-0.0072,-0.0079,-0.0086,-0.0097,-0.0103,-0.011,-0.0118,-0.0129,-0.014,-0.0152,-0.0155,-0.0161,-0.0168,-0.0169,-0.0173,-0.0175,-0.0175,-0.0177,-0.0177,-0.0172,-0.0172,-0.0172,-0.0172,0,0,-0.0037,-0.0057,-0.0058,-0.0065,-0.008,-0.0087,-0.0095,-0.0107,-0.0112,-0.0122,-0.013,-0.0143,-0.0147,-0.0154,-0.0162,-0.0167,-0.0169,-0.017,-0.017,-0.0169,-0.0178,-0.0176,-0.0176,-0.0173,-0.0173,-0.0173,-0.0178,0,-0.0038,-0.0052,-0.0062,-0.0072,-0.0081,-0.0091,-0.0098,-0.0108,-0.0116,-0.0125,-0.0134,-0.0144,-0.0147,-0.0152,-0.0158,-0.0167,-0.0171,-0.0167,-0.0181,-0.0181,-0.0177,-0.0177,-0.0174,-0.0177,-0.0178,-0.0178,-0.0178,0,-0.004,-0.005,-0.0061,-0.0076,-0.008,-0.0086,-0.0098,-0.0106,-0.0119,-0.0124,-0.0133,-0.0141,-0.015,-0.0152,-0.0166,-0.0164,-0.017,-0.0176,-0.0176,-0.0178,-0.018,-0.0179,-0.0178,-0.0179,-0.018,-0.0179,-0.0179,0,-0.0033,-0.0049,-0.0058,-0.0064,-0.0081,-0.0086,-0.0093,-0.0105,-0.0112,-0.0123,-0.0128,-0.014,-0.0146,-0.0156,-0.0167,-0.0167,-0.018,-0.0183,-0.0186,-0.0185,-0.0187,-0.0187,-0.0188,-0.0191,-0.0191,-0.0191,-0.0191,0,-0.0032,-0.0039,-0.0055,-0.0061,-0.0069,-0.0081,-0.0089,-0.0097,-0.0108,-0.0117,-0.0126,-0.0134,-0.0148,-0.0157,-0.0166,-0.0177,-0.0179,-0.0185,-0.0187,-0.0184,-0.0183,-0.0188,-0.0188,-0.0191,-0.0191,-0.0191,-0.0191,0,-0.0025,-0.0037,-0.0047,-0.0063,-0.0067,-0.0073,-0.0087,-0.0093,-0.0102,-0.0112,-0.0115,-0.013,-0.0141,-0.0153,-0.0169,-0.0175,-0.0186,-0.0189,-0.0182,-0.0183,-0.0185,-0.0185,-0.0189,-0.0191,-0.0193,-0.0192,-0.0192,0,-0.0024,-0.003,-0.0046,-0.0052,-0.006,-0.0069,-0.0076,-0.0088,-0.0096,-0.0111,-0.0115,-0.0128,-0.0138,-0.0157,-0.0169,-0.0182,-0.0185,-0.0186,-0.0187,-0.0184,-0.0186,-0.0185,-0.0186,-0.0185,-0.0185,-0.0185,-0.0185,0,-0.0022,-0.0027,-0.0037,-0.0049,-0.0057,-0.0067,-0.0078,-0.0082,-0.0097,-0.0104,-0.0116,-0.0125,-0.0141,-0.0154,-0.0168,-0.0176,-0.0183,-0.0185,-0.0186,-0.0183,-0.0179,-0.0182,-0.0181,-0.0185,-0.0185,-0.0185,-0.0185,-0.0185,-0.0018,-0.0023,-0.0036,-0.0047,-0.0056,-0.0066,-0.0073,-0.0083,-0.0093,-0.0107,-0.0114,-0.0127,-0.014,-0.016,-0.0168,-0.0179,-0.018,-0.0182,-0.0183,-0.0183,-0.0183,-0.0177,-0.0181,-0.0181,-0.0181,-0.0181,-0.0181,0,-0.0016,-0.0025,-0.0034,-0.0049,-0.0058,-0.0064,-0.0076,-0.0083,-0.0094,-0.0105,-0.0116,-0.013,-0.0143,-0.0156,-0.017,-0.0175,-0.0179,-0.0179,-0.0178,-0.018,-0.018,-0.0177,-0.0175,-0.0175,-0.0175,-0.0175,-0.0175,-0.0175,-0.0016,-0.0026,-0.0033,-0.0048,-0.0057,-0.0069,-0.0076,-0.0085,-0.0095,-0.011,-0.012,-0.0129,-0.0142,-0.0157,-0.0169,-0.0173,-0.0177,-0.0176,-0.0181,-0.018,-0.018,-0.0181,-0.0178,-0.0177,-0.0177,-0.018,-0.018,-0.018]}]]